Torna al catalogo

COSMOS 1937

AttivoNavigazioneLEO
NORAD 19038·PAYLOAD·🇷🇺 Russia

Lanciato Apr 5, 1988 da Plesetsk Cosmodrome

Loading…

Prossimi Passaggi (prossime 24 ore)

TLE

AggiornatoSource: Space-Track

Epoca: Sep 14, 2026, 09:17 UTC

1 19038U 88029A   26257.38717269  .00000067  00000-0  31930-4 0  9996
2 19038  74.0453 300.9287 0023910   1.8335   8.9757 14.36167421 12543

Traccia COSMOS 1937 in tempo reale con AllMySat

Download on the App Store